• In Portugal
  • List of Countries
  • For 7 days
  • Water Temperature
  • Satellite Maps
  • Weather Map
  • Weather Widgets
  • user-avatar
    Login

    Hourly Weather Yablonovka

    Today, 23 July, Monday

    Time Temperature Precipitation Wind Pressure Humidity
    00:00 +26°C° 0.9 mm 1 mps 744 mmHg 96%
    01:00 +25°C° 0 mm 1 mps 744 mmHg 96%
    02:00 +25°C° 0 mm 1 mps 744 mmHg 96%
    03:00 +24°C° 0 mm 1 mps 744 mmHg 96%
    04:00 +24°C° 0 mm 1 mps 744 mmHg 96%
    05:00 +24°C° 0 mm 1 mps 744 mmHg 97%
    06:00 +25°C° 0 mm 1 mps 744 mmHg 97%
    07:00 +26°C° 0 mm 1 mps 744 mmHg 92%
    08:00 +27°C° 0 mm 1 mps 744 mmHg 87%
    09:00 +29°C° 0 mm 1 mps 744 mmHg 83%
    10:00 +30°C° 0 mm 1 mps 744 mmHg 78%
    11:00 +31°C° 0 mm 1 mps 744 mmHg 72%
    12:00 +32°C° 0 mm 1 mps 744 mmHg 67%
    13:00 +34°C° 0 mm 2 mps 744 mmHg 64%
    14:00 +35°C° 0 mm 2 mps 743 mmHg 61%
    15:00 +35°C° 0 mm 2 mps 743 mmHg 58%
    16:00 +34°C° 0 mm 2 mps 743 mmHg 64%
    17:00 +33°C° 0 mm 1 mps 743 mmHg 70%
    18:00 +32°C° 0 mm 1 mps 743 mmHg 76%
    19:00 +30°C° 0 mm 1 mps 743 mmHg 82%
    20:00 +26°C° 0 mm 0 mps 743 mmHg 87%
    21:00 +24°C° 0 mm 0 mps 743 mmHg 92%
    22:00 +24°C° 0 mm 0 mps 743 mmHg 93%
    23:00 +26°C° 0 mm 1 mps 744 mmHg 93%

    Tomorrow, 24 July, Tuesday

    Time Temperature Precipitation Wind Pressure Humidity
    00:00 +25°C° 0 mm 1 mps 744 mmHg 93%
    01:00 +25°C° 0.1 mm 1 mps 744 mmHg 94%
    02:00 +25°C° 0.1 mm 1 mps 744 mmHg 94%
    03:00 +25°C° 0.1 mm 1 mps 744 mmHg 95%
    04:00 +25°C° 0 mm 1 mps 744 mmHg 94%
    05:00 +25°C° 0 mm 1 mps 744 mmHg 94%
    06:00 +25°C° 0 mm 1 mps 744 mmHg 94%
    07:00 +27°C° 0 mm 1 mps 744 mmHg 87%
    08:00 +29°C° 0 mm 1 mps 744 mmHg 80%
    09:00 +31°C° 0 mm 1 mps 744 mmHg 73%
    10:00 +32°C° 0 mm 2 mps 744 mmHg 69%
    11:00 +34°C° 0 mm 2 mps 744 mmHg 65%
    12:00 +35°C° 0 mm 2 mps 744 mmHg 61%
    13:00 +35°C° 0 mm 2 mps 743 mmHg 60%
    14:00 +35°C° 0 mm 2 mps 743 mmHg 60%
    15:00 +35°C° 0 mm 3 mps 743 mmHg 59%
    16:00 +34°C° 0 mm 2 mps 743 mmHg 65%
    17:00 +32°C° 0 mm 2 mps 743 mmHg 71%
    18:00 +31°C° 0 mm 1 mps 743 mmHg 77%
    19:00 +30°C° 0 mm 1 mps 744 mmHg 82%
    20:00 +28°C° 0 mm 1 mps 744 mmHg 88%
    21:00 +24°C° 0 mm 0 mps 744 mmHg 93%
    22:00 +24°C° 0 mm 0 mps 744 mmHg 93%
    23:00 +24°C° 0 mm 0 mps 744 mmHg 93%

    Day after tomorrow, 25 July, Wednesday

    Time Temperature Precipitation Wind Pressure Humidity
    00:00 +24°C° 0 mm 0 mps 744 mmHg 94%
    01:00 +23°C° 0 mm 0 mps 744 mmHg 94%
    02:00 +23°C° 0 mm 0 mps 744 mmHg 94%
    03:00 +23°C° 0 mm 0 mps 744 mmHg 95%
    04:00 +25°C° 0 mm 1 mps 744 mmHg 94%
    05:00 +25°C° 0 mm 1 mps 744 mmHg 94%
    06:00 +26°C° 0 mm 1 mps 744 mmHg 93%
    07:00 +27°C° 0 mm 1 mps 744 mmHg 88%
    08:00 +28°C° 0 mm 1 mps 744 mmHg 82%
    09:00 +30°C° 0 mm 1 mps 744 mmHg 77%
    10:00 +32°C° 0 mm 1 mps 744 mmHg 69%
    11:00 +34°C° 0 mm 1 mps 743 mmHg 61%
    12:00 +36°C° 0 mm 1 mps 743 mmHg 53%
    13:00 +36°C° 0 mm 1 mps 743 mmHg 54%
    14:00 +36°C° 0 mm 1 mps 742 mmHg 54%
    15:00 +36°C° 0 mm 1 mps 742 mmHg 54%
    16:00 +35°C° 0.1 mm 1 mps 742 mmHg 62%
    17:00 +34°C° 0.1 mm 1 mps 742 mmHg 69%
    18:00 +32°C° 0.1 mm 1 mps 742 mmHg 77%
    19:00 +31°C° 0 mm 2 mps 742 mmHg 79%
    20:00 +29°C° 0 mm 2 mps 742 mmHg 81%
    21:00 +28°C° 0 mm 3 mps 742 mmHg 83%
    22:00 +27°C° 0.2 mm 3 mps 742 mmHg 86%
    23:00 +26°C° 0.2 mm 2 mps 742 mmHg 89%

    26 July, Thursday

    Time Temperature Precipitation Wind Pressure Humidity
    00:00 +25°C° 0.2 mm 2 mps 742 mmHg 93%
    01:00 +25°C° 0.6 mm 3 mps 742 mmHg 94%
    02:00 +24°C° 0.6 mm 3 mps 741 mmHg 95%
    03:00 +24°C° 0.6 mm 3 mps 741 mmHg 96%
    04:00 +24°C° 0.5 mm 3 mps 741 mmHg 96%
    05:00 +25°C° 0.5 mm 3 mps 741 mmHg 96%
    06:00 +25°C° 0.5 mm 3 mps 741 mmHg 96%
    07:00 +27°C° 0.1 mm 4 mps 741 mmHg 90%
    08:00 +29°C° 0.1 mm 4 mps 742 mmHg 83%
    09:00 +32°C° 0.1 mm 5 mps 742 mmHg 77%
    10:00 +32°C° 0.3 mm 4 mps 742 mmHg 77%
    11:00 +33°C° 0.3 mm 4 mps 741 mmHg 76%
    12:00 +33°C° 0.3 mm 4 mps 741 mmHg 76%
    13:00 +33°C° 0.7 mm 4 mps 741 mmHg 80%
    14:00 +31°C° 0.7 mm 3 mps 741 mmHg 83%
    15:00 +31°C° 0.7 mm 3 mps 741 mmHg 87%
    16:00 +30°C° 0.7 mm 2 mps 741 mmHg 89%
    17:00 +30°C° 0.7 mm 2 mps 741 mmHg 91%
    18:00 +30°C° 0.7 mm 1 mps 741 mmHg 93%
    19:00 +28°C° 0.7 mm 1 mps 741 mmHg 94%
    20:00 +27°C° 0.7 mm 1 mps 741 mmHg 95%
    21:00 +26°C° 0.7 mm 1 mps 742 mmHg 96%
    22:00 +26°C° 0.4 mm 1 mps 742 mmHg 96%
    23:00 +25°C° 0.4 mm 1 mps 742 mmHg 97%

    27 July, Friday

    Time Temperature Precipitation Wind Pressure Humidity
    00:00 +25°C° 0.4 mm 1 mps 742 mmHg 97%
    01:00 +24°C° 0.1 mm 1 mps 742 mmHg 97%
    02:00 +24°C° 0.1 mm 1 mps 742 mmHg 97%
    03:00 +24°C° 0.1 mm 1 mps 742 mmHg 98%
    04:00 +24°C° 0.1 mm 1 mps 742 mmHg 98%
    05:00 +24°C° 0.1 mm 1 mps 742 mmHg 98%
    06:00 +24°C° 0.1 mm 1 mps 742 mmHg 98%
    07:00 +25°C° 0.1 mm 1 mps 743 mmHg 93%
    08:00 +26°C° 0.1 mm 1 mps 743 mmHg 88%
    09:00 +27°C° 0.1 mm 2 mps 743 mmHg 83%
    10:00 +28°C° 0.1 mm 2 mps 743 mmHg 76%
    11:00 +29°C° 0.1 mm 2 mps 743 mmHg 69%
    12:00 +30°C° 0.1 mm 2 mps 743 mmHg 62%
    13:00 +31°C° 0.1 mm 2 mps 743 mmHg 60%
    14:00 +31°C° 0.1 mm 3 mps 743 mmHg 59%
    15:00 +31°C° 0.1 mm 3 mps 743 mmHg 57%
    16:00 +31°C° 0 mm 3 mps 743 mmHg 63%
    17:00 +30°C° 0 mm 2 mps 743 mmHg 68%
    18:00 +29°C° 0 mm 2 mps 743 mmHg 73%
    19:00 +27°C° 0 mm 2 mps 744 mmHg 80%
    20:00 +26°C° 0 mm 1 mps 744 mmHg 87%
    21:00 +24°C° 0 mm 1 mps 744 mmHg 94%
    22:00 +23°C° 0 mm 1 mps 744 mmHg 94%
    23:00 +21°C° 0 mm 0 mps 744 mmHg 95%

    28 July, Saturday

    Time Temperature Precipitation Wind Pressure Humidity
    00:00 +21°C° 0 mm 0 mps 744 mmHg 95%
    01:00 +20°C° 0 mm 0 mps 744 mmHg 95%
    02:00 +20°C° 0 mm 0 mps 745 mmHg 96%
    03:00 +20°C° 0 mm 0 mps 745 mmHg 96%
    04:00 +20°C° 0 mm 0 mps 745 mmHg 96%
    05:00 +20°C° 0 mm 0 mps 745 mmHg 96%
    06:00 +21°C° 0 mm 0 mps 745 mmHg 96%
    07:00 +25°C° 0 mm 1 mps 745 mmHg 88%
    08:00 +27°C° 0 mm 1 mps 745 mmHg 81%
    09:00 +29°C° 0 mm 1 mps 745 mmHg 73%
    10:00 +30°C° 0 mm 1 mps 745 mmHg 68%
    11:00 +31°C° 0 mm 2 mps 745 mmHg 63%
    12:00 +32°C° 0 mm 2 mps 745 mmHg 57%
    13:00 +34°C° 0 mm 2 mps 744 mmHg 57%
    14:00 +34°C° 0 mm 2 mps 744 mmHg 56%
    15:00 +34°C° 0 mm 3 mps 744 mmHg 55%
    16:00 +32°C° 0 mm 2 mps 744 mmHg 61%
    17:00 +31°C° 0 mm 2 mps 744 mmHg 67%
    18:00 +30°C° 0 mm 1 mps 744 mmHg 74%
    19:00 +28°C° 0 mm 1 mps 744 mmHg 79%
    20:00 +26°C° 0 mm 1 mps 744 mmHg 85%
    21:00 +22°C° 0 mm 0 mps 745 mmHg 91%
    22:00 +22°C° 0 mm 0 mps 745 mmHg 92%
    23:00 +24°C° 0 mm 1 mps 745 mmHg 92%
    Show more